TimeEDT,TemperatureF,Dew PointF,Humidity,Sea Level PressureIn,VisibilityMPH,Wind Direction,Wind SpeedMPH,Gust SpeedMPH,PrecipitationIn,Events,Conditions,WindDirDegrees,DateUTC
12:51 AM,57.0,43.0,59,29.89,10.0,WNW,6.9,-,N/A,,Clear,300,2013-06-15 04:51:00
1:51 AM,54.0,43.0,66,29.90,10.0,WNW,4.6,-,N/A,,Clear,290,2013-06-15 05:51:00
2:51 AM,53.1,44.1,71,29.92,10.0,NW,8.1,-,N/A,,Clear,310,2013-06-15 06:51:00
3:51 AM,52.0,41.0,66,29.93,10.0,NW,5.8,-,N/A,,Clear,310,2013-06-15 07:51:00
4:51 AM,51.1,41.0,68,29.95,10.0,Calm,Calm,-,N/A,,Clear,0,2013-06-15 08:51:00
5:51 AM,50.0,42.1,74,29.96,10.0,Calm,Calm,-,N/A,,Clear,0,2013-06-15 09:51:00
6:51 AM,53.1,44.1,71,29.97,10.0,Calm,Calm,-,N/A,,Clear,0,2013-06-15 10:51:00
7:51 AM,55.0,45.0,69,29.99,10.0,North,3.5,-,N/A,,Clear,350,2013-06-15 11:51:00
8:51 AM,60.1,42.1,51,30.00,10.0,NW,4.6,-,N/A,,Clear,320,2013-06-15 12:51:00
9:51 AM,63.0,42.1,46,30.00,10.0,NW,9.2,-,N/A,,Clear,310,2013-06-15 13:51:00
10:51 AM,66.0,41.0,40,29.99,10.0,NW,11.5,-,N/A,,Clear,310,2013-06-15 14:51:00
11:51 AM,64.9,41.0,42,29.99,10.0,WNW,9.2,-,N/A,,Mostly Cloudy,300,2013-06-15 15:51:00
12:51 PM,66.9,39.0,36,29.99,10.0,NW,11.5,21.9,N/A,,Partly Cloudy,310,2013-06-15 16:51:00
1:51 PM,68.0,43.0,40,29.98,10.0,West,8.1,-,N/A,,Scattered Clouds,260,2013-06-15 17:51:00
2:51 PM,68.0,41.0,37,29.96,10.0,West,5.8,-,N/A,,Scattered Clouds,270,2013-06-15 18:51:00
3:51 PM,66.9,43.0,42,29.95,10.0,WNW,8.1,-,N/A,,Mostly Cloudy,300,2013-06-15 19:51:00
4:51 PM,68.0,42.1,39,29.94,10.0,NNW,8.1,-,N/A,,Mostly Cloudy,330,2013-06-15 20:51:00
5:51 PM,70.0,42.1,36,29.94,10.0,NNW,8.1,-,N/A,,Partly Cloudy,330,2013-06-15 21:51:00
6:51 PM,68.0,41.0,37,29.94,10.0,NW,6.9,-,N/A,,Clear,320,2013-06-15 22:51:00
7:51 PM,64.9,41.0,42,29.95,10.0,WNW,5.8,-,N/A,,Clear,290,2013-06-15 23:51:00
8:51 PM,57.0,44.1,62,29.95,10.0,SW,4.6,-,N/A,,Clear,220,2013-06-16 00:51:00
9:51 PM,59.0,42.1,53,29.96,10.0,SW,4.6,-,N/A,,Clear,230,2013-06-16 01:51:00
10:51 PM,55.0,43.0,64,29.97,10.0,WSW,4.6,-,N/A,,Clear,240,2013-06-16 02:51:00
11:51 PM,52.0,43.0,71,29.97,10.0,Calm,Calm,-,N/A,,Clear,0,2013-06-16 03:51:00